TimeMST,TemperatureF,Dew PointF,Humidity,Sea Level PressureIn,VisibilityMPH,Wind Direction,Wind SpeedMPH,Gust SpeedMPH,PrecipitationIn,Events,Conditions,WindDirDegrees,DateUTC
12:53 AM,12.9,1.0,59,30.07,10.0,WSW,24.2,33.4,N/A,,Overcast,250,2012-12-10 07:53:00
1:53 AM,12.0,1.9,64,30.06,10.0,WSW,27.6,32.2,N/A,,Overcast,240,2012-12-10 08:53:00
2:53 AM,12.9,1.9,62,30.05,10.0,WSW,27.6,34.5,N/A,,Overcast,240,2012-12-10 09:53:00
3:53 AM,14.0,1.9,59,30.04,10.0,West,20.7,25.3,N/A,,Overcast,270,2012-12-10 10:53:00
4:53 AM,12.9,1.9,62,30.02,10.0,SW,29.9,41.4,N/A,,Overcast,230,2012-12-10 11:53:00
6:53 AM,14.0,3.0,62,30.08,10.0,WNW,12.7,21.9,N/A,,Overcast,300,2012-12-10 13:53:00
7:53 AM,15.1,3.9,61,30.07,10.0,WSW,16.1,25.3,N/A,,Overcast,250,2012-12-10 14:53:00
8:53 AM,17.1,5.0,59,30.06,10.0,WSW,19.6,-,N/A,,Overcast,250,2012-12-10 15:53:00
9:53 AM,19.0,6.1,57,30.02,10.0,West,28.8,35.7,N/A,,Mostly Cloudy,270,2012-12-10 16:53:00
10:53 AM,21.9,8.1,55,29.97,10.0,West,28.8,-,N/A,,Clear,260,2012-12-10 17:53:00
11:53 AM,25.0,8.1,49,29.91,10.0,West,27.6,33.4,N/A,,Partly Cloudy,270,2012-12-10 18:53:00
12:53 PM,24.1,8.1,51,29.89,10.0,West,24.2,33.4,N/A,,Mostly Cloudy,260,2012-12-10 19:53:00
1:53 PM,23.0,8.1,53,29.89,10.0,West,25.3,33.4,N/A,,Mostly Cloudy,280,2012-12-10 20:53:00
2:53 PM,23.0,9.0,55,29.89,10.0,WNW,21.9,27.6,N/A,,Partly Cloudy,290,2012-12-10 21:53:00
3:53 PM,23.0,8.1,53,29.90,10.0,West,19.6,29.9,N/A,,Mostly Cloudy,280,2012-12-10 22:53:00
4:53 PM,19.9,9.0,62,29.92,10.0,WNW,16.1,-,N/A,,Mostly Cloudy,300,2012-12-10 23:53:00
5:53 PM,21.0,12.9,71,29.94,8.0,NW,20.7,25.3,0.00,Snow,Light Snow,310,2012-12-11 00:53:00
6:34 PM,19.4,15.8,86,29.82,2.5,NNW,11.5,-,0.00,Snow,Light Snow,330,2012-12-11 01:34:00
6:49 PM,17.6,15.8,93,29.82,2.5,NNW,16.1,23.0,0.00,Snow,Light Snow,330,2012-12-11 01:49:00
6:53 PM,18.0,14.0,84,29.97,6.0,NNW,15.0,23.0,0.00,Snow,Light Snow,330,2012-12-11 01:53:00
7:02 PM,17.6,14.0,86,29.82,10.0,NNW,13.8,-,0.00,,Overcast,330,2012-12-11 02:02:00
7:53 PM,16.0,12.9,88,30.00,6.0,NW,13.8,-,0.00,Snow,Light Snow,320,2012-12-11 02:53:00
8:01 PM,15.8,12.2,86,29.85,5.0,NW,12.7,-,0.00,Snow,Light Snow,320,2012-12-11 03:01:00
8:16 PM,15.8,12.2,86,29.85,10.0,NW,12.7,-,0.00,,Mostly Cloudy,310,2012-12-11 03:16:00
8:53 PM,16.0,12.9,88,30.01,9.0,NW,15.0,-,0.00,Snow,Light Snow,320,2012-12-11 03:53:00
9:53 PM,12.9,9.0,84,30.02,10.0,NW,13.8,-,0.00,,Partly Cloudy,320,2012-12-11 04:53:00
10:53 PM,10.0,6.1,84,30.04,10.0,West,9.2,-,N/A,,Scattered Clouds,280,2012-12-11 05:53:00
11:53 PM,14.0,7.0,74,30.00,10.0,NW,10.4,-,N/A,,Overcast,310,2012-12-11 06:53:00